• In Belarus
  • List of Countries
  • For 7 days
  • Water Temperature
  • Weather Map
  • Weather Widgets
  • user-avatar
    Login

    Hourly Weather Salzburg

    Today, 20 September, Friday

    Time Temperature Precipitation Wind Pressure Humidity
    00:00 -1°C° 0 mm 1 mps 630 mmHg 91%
    01:00 -1°C° 0 mm 1 mps 630 mmHg 91%
    02:00 -1°C° 0 mm 1 mps 630 mmHg 90%
    03:00 -1°C° 0 mm 1 mps 630 mmHg 89%
    04:00 -1°C° 0 mm 1 mps 629 mmHg 88%
    05:00 0°C° 0 mm 1 mps 630 mmHg 83%
    06:00 +1°C° 0 mm 1 mps 630 mmHg 78%
    07:00 0°C° 0 mm 0 mps 631 mmHg 73%
    08:00 +3°C° 0 mm 0 mps 632 mmHg 62%
    09:00 +7°C° 0 mm 1 mps 633 mmHg 51%
    10:00 +10°C° 0 mm 1 mps 634 mmHg 39%
    11:00 +11°C° 0 mm 1 mps 634 mmHg 38%
    12:00 +12°C° 0 mm 1 mps 633 mmHg 36%
    13:00 +13°C° 0 mm 2 mps 633 mmHg 35%
    14:00 +12°C° 0 mm 2 mps 633 mmHg 39%
    15:00 +12°C° 0 mm 1 mps 632 mmHg 43%
    16:00 +11°C° 0 mm 1 mps 632 mmHg 47%
    17:00 +9°C° 0 mm 1 mps 631 mmHg 58%
    18:00 +6°C° 0 mm 1 mps 630 mmHg 70%
    19:00 +3°C° 0 mm 1 mps 630 mmHg 82%
    20:00 +3°C° 0 mm 1 mps 630 mmHg 81%
    21:00 +3°C° 0 mm 1 mps 630 mmHg 79%
    22:00 +3°C° 0 mm 1 mps 630 mmHg 78%
    23:00 +3°C° 0 mm 1 mps 630 mmHg 76%

    Tomorrow, 21 September, Saturday

    Time Temperature Precipitation Wind Pressure Humidity
    00:00 +3°C° 0 mm 1 mps 630 mmHg 75%
    01:00 +3°C° 0 mm 1 mps 630 mmHg 73%
    02:00 +3°C° 0 mm 1 mps 629 mmHg 72%
    03:00 +2°C° 0 mm 2 mps 629 mmHg 71%
    04:00 +2°C° 0 mm 2 mps 629 mmHg 69%
    05:00 +3°C° 0 mm 2 mps 629 mmHg 68%
    06:00 +3°C° 0 mm 2 mps 629 mmHg 67%
    07:00 +4°C° 0 mm 2 mps 629 mmHg 66%
    08:00 +8°C° 0 mm 1 mps 630 mmHg 58%
    09:00 +12°C° 0 mm 1 mps 631 mmHg 51%
    10:00 +15°C° 0 mm 1 mps 633 mmHg 44%
    11:00 +16°C° 0 mm 1 mps 633 mmHg 42%
    12:00 +18°C° 0 mm 1 mps 633 mmHg 40%
    13:00 +20°C° 0 mm 1 mps 633 mmHg 39%
    14:00 +19°C° 0 mm 1 mps 632 mmHg 43%
    15:00 +18°C° 0 mm 1 mps 631 mmHg 48%
    16:00 +16°C° 0 mm 1 mps 631 mmHg 53%
    17:00 +14°C° 0 mm 2 mps 630 mmHg 62%
    18:00 +10°C° 0 mm 2 mps 629 mmHg 71%
    19:00 +7°C° 0 mm 2 mps 628 mmHg 80%
    20:00 +7°C° 0 mm 2 mps 628 mmHg 79%
    21:00 +6°C° 0 mm 2 mps 628 mmHg 79%
    22:00 +5°C° 0 mm 2 mps 627 mmHg 78%
    23:00 +5°C° 0 mm 2 mps 627 mmHg 79%

    Day after tomorrow, 22 September, Sunday

    Time Temperature Precipitation Wind Pressure Humidity
    00:00 +5°C° 0 mm 2 mps 627 mmHg 79%
    01:00 +5°C° 0 mm 2 mps 626 mmHg 80%
    02:00 +5°C° 0 mm 2 mps 626 mmHg 79%
    03:00 +4°C° 0 mm 2 mps 626 mmHg 79%
    04:00 +4°C° 0 mm 2 mps 626 mmHg 79%
    05:00 +5°C° 0 mm 2 mps 626 mmHg 77%
    06:00 +5°C° 0 mm 2 mps 626 mmHg 75%
    07:00 +6°C° 0 mm 2 mps 626 mmHg 73%
    08:00 +9°C° 0 mm 2 mps 627 mmHg 64%
    09:00 +13°C° 0 mm 1 mps 628 mmHg 56%
    10:00 +16°C° 0 mm 1 mps 629 mmHg 47%
    11:00 +18°C° 0 mm 1 mps 629 mmHg 46%
    12:00 +19°C° 0 mm 1 mps 629 mmHg 45%
    13:00 +20°C° 0 mm 1 mps 629 mmHg 43%
    14:00 +19°C° 0 mm 1 mps 628 mmHg 49%
    15:00 +18°C° 0 mm 1 mps 627 mmHg 54%
    16:00 +16°C° 0 mm 1 mps 627 mmHg 60%
    17:00 +14°C° 0 mm 1 mps 626 mmHg 68%
    18:00 +12°C° 0 mm 2 mps 625 mmHg 76%
    19:00 +9°C° 0 mm 2 mps 624 mmHg 83%
    20:00 +8°C° 0 mm 2 mps 624 mmHg 84%
    21:00 +8°C° 0 mm 2 mps 624 mmHg 84%
    22:00 +7°C° 0 mm 3 mps 624 mmHg 84%
    23:00 +7°C° 0 mm 3 mps 623 mmHg 85%

    23 September, Monday

    Time Temperature Precipitation Wind Pressure Humidity
    00:00 +7°C° 0 mm 2 mps 623 mmHg 85%
    01:00 +7°C° 0 mm 2 mps 623 mmHg 86%
    02:00 +7°C° 0 mm 2 mps 623 mmHg 86%
    03:00 +7°C° 0 mm 2 mps 623 mmHg 85%
    04:00 +7°C° 0 mm 2 mps 623 mmHg 85%
    05:00 +8°C° 0 mm 1 mps 623 mmHg 85%
    06:00 +8°C° 0 mm 1 mps 623 mmHg 85%
    07:00 +8°C° 0 mm 0 mps 623 mmHg 84%
    08:00 +9°C° 0.1 mm 1 mps 624 mmHg 85%
    09:00 +10°C° 0.1 mm 1 mps 624 mmHg 85%
    10:00 +10°C° 0.1 mm 1 mps 624 mmHg 85%
    11:00 +10°C° 0.9 mm 1 mps 624 mmHg 89%
    12:00 +8°C° 0.9 mm 2 mps 624 mmHg 94%
    13:00 +7°C° 0.9 mm 2 mps 623 mmHg 98%
    14:00 +7°C° 1.9 mm 2 mps 623 mmHg 98%
    15:00 +6°C° 1.9 mm 2 mps 623 mmHg 98%
    16:00 +7°C° 1.9 mm 1 mps 623 mmHg 98%
    17:00 +7°C° 1.1 mm 1 mps 623 mmHg 98%
    18:00 +6°C° 1.1 mm 1 mps 624 mmHg 98%
    19:00 +6°C° 1.1 mm 1 mps 624 mmHg 98%
    20:00 +6°C° 0.5 mm 1 mps 624 mmHg 99%
    21:00 +6°C° 0.5 mm 1 mps 624 mmHg 99%
    22:00 +6°C° 0.5 mm 1 mps 625 mmHg 99%
    23:00 +6°C° 0.5 mm 1 mps 625 mmHg 99%

    24 September, Tuesday

    Time Temperature Precipitation Wind Pressure Humidity
    00:00 +6°C° 0.5 mm 1 mps 625 mmHg 99%
    01:00 +6°C° 0.5 mm 1 mps 625 mmHg 98%
    02:00 +6°C° 0.3 mm 1 mps 625 mmHg 98%
    03:00 +6°C° 0.3 mm 1 mps 625 mmHg 99%
    04:00 +6°C° 0.3 mm 1 mps 625 mmHg 99%
    05:00 +6°C° 0.2 mm 1 mps 625 mmHg 98%
    06:00 +6°C° 0.2 mm 1 mps 625 mmHg 98%
    07:00 +6°C° 0.2 mm 1 mps 625 mmHg 98%
    08:00 +7°C° 0.1 mm 1 mps 626 mmHg 96%
    09:00 +7°C° 0.1 mm 0 mps 626 mmHg 94%
    10:00 +8°C° 0.1 mm 0 mps 626 mmHg 91%
    11:00 +9°C° 0 mm 0 mps 626 mmHg 85%
    12:00 +10°C° 0 mm 0 mps 626 mmHg 78%
    13:00 +13°C° 0 mm 1 mps 627 mmHg 71%
    14:00 +13°C° 0 mm 1 mps 626 mmHg 70%
    15:00 +13°C° 0 mm 1 mps 626 mmHg 68%
    16:00 +13°C° 0 mm 1 mps 626 mmHg 66%
    17:00 +11°C° 0 mm 1 mps 625 mmHg 74%
    18:00 +9°C° 0 mm 1 mps 625 mmHg 82%
    19:00 +7°C° 0 mm 1 mps 624 mmHg 90%
    20:00 +8°C° 0 mm 1 mps 624 mmHg 89%
    21:00 +8°C° 0 mm 1 mps 625 mmHg 88%
    22:00 +8°C° 0 mm 1 mps 625 mmHg 87%
    23:00 +7°C° 0.1 mm 0 mps 625 mmHg 89%

    25 September, Wednesday

    Time Temperature Precipitation Wind Pressure Humidity
    00:00 +6°C° 0.1 mm 0 mps 625 mmHg 91%
    01:00 +6°C° 0.1 mm 0 mps 625 mmHg 93%
    02:00 +6°C° 0.1 mm 0 mps 625 mmHg 93%
    03:00 +6°C° 0.1 mm 0 mps 624 mmHg 94%
    04:00 +6°C° 0.1 mm 0 mps 624 mmHg 95%
    05:00 +7°C° 0.1 mm 1 mps 624 mmHg 95%
    06:00 +8°C° 0.1 mm 1 mps 624 mmHg 95%
    07:00 +8°C° 0.1 mm 1 mps 624 mmHg 95%
    08:00 +9°C° 0.1 mm 1 mps 625 mmHg 92%
    09:00 +9°C° 0.1 mm 0 mps 625 mmHg 89%
    10:00 +10°C° 0.1 mm 0 mps 626 mmHg 86%
    11:00 +11°C° 0.3 mm 1 mps 626 mmHg 85%
    12:00 +11°C° 0.3 mm 1 mps 625 mmHg 85%
    13:00 +12°C° 0.3 mm 1 mps 625 mmHg 84%
    14:00 +11°C° 1.8 mm 1 mps 625 mmHg 89%
    15:00 +10°C° 1.8 mm 1 mps 624 mmHg 93%
    16:00 +8°C° 1.8 mm 2 mps 624 mmHg 98%
    17:00 +8°C° 3.3 mm 1 mps 624 mmHg 98%
    18:00 +7°C° 3.3 mm 1 mps 624 mmHg 97%
    19:00 +6°C° 3.3 mm 1 mps 624 mmHg 97%
    20:00 +6°C° 0.7 mm 1 mps 625 mmHg 97%
    21:00 +6°C° 0.7 mm 1 mps 625 mmHg 96%
    22:00 +5°C° 0.7 mm 1 mps 625 mmHg 96%
    23:00 +5°C° 0 mm 1 mps 625 mmHg 95%
    Show more